This demonstration page uses our WeatherBlox Daily Observations layout. Learn more.

Left ArrowRight Arrow

Hourly Observations for February 27, 2016

Temp ( °F °C ) Dew Point ( °F °C ) Humidity (%) Winds ( mph kmh ) Pressure ( in mb ) Visibility ( mi km ) Precip ( " mm )
12:53 am 00:53 Clear 54 12.2 44 6.7 69 69 NW 3 6 30.15 1021 10 16 0.00 0.00
1:53 am 01:53 Clear 52 11.1 44 6.7 75 75 Calm 30.17 1022 10 16 0.00 0.00
2:53 am 02:53 Clear 52 11.1 43 6.1 72 72 E 5 7 30.18 1022 10 16 0.00 0.00
3:53 am 03:53 Clear 52 11.1 44 6.7 75 75 VRB 3 6 30.17 1022 10 16 0.00 0.00
4:53 am 04:53 Clear 49 9.4 44 6.7 83 83 Calm 30.17 1022 10 16 0.00 0.00
5:53 am 05:53 Clear 49 9.4 44 6.7 83 83 NNE 5 7 30.18 1022 10 16 0.00 0.00
6:53 am 06:53 Sunny 50 10 43 6.1 77 77 NNW 5 7 30.18 1022 10 16 0.00 0.00
7:53 am 07:53 Sunny 50 10 44 6.7 80 80 N 3 6 30.19 1022 10 16 0.00 0.00
8:53 am 08:53 Sunny 55 12.8 45 7.2 69 69 N 3 6 30.18 1022 10 16 0.00 0.00
9:53 am 09:53 Sunny 58 14.4 44 6.7 60 60 W 6 9 30.19 1022 10 16 0.00 0.00
10:53 am 10:53 Mostly Sunny 59 15 43 6.1 56 56 WNW 5 7 30.20 1023 10 16 0.00 0.00
11:53 am 11:53 Cloudy 60 15.6 43 6.1 53 53 NE 5 7 30.18 1022 10 16 0.00 0.00
12:53 pm 12:53 Cloudy 61 16.1 43 6.1 52 52 Calm 30.16 1021 10 16 0.00 0.00
1:53 pm 13:53 Mostly Cloudy 63 17.2 43 6.1 48 48 Calm 30.14 1021 10 16 0.00 0.00
2:53 pm 14:53 Sunny 65 18.3 41 5 42 42 NW 5 7 30.13 1020 10 16 0.00 0.00
3:53 pm 15:53 Cloudy 64 17.8 41 5 43 43 Calm 30.12 1020 10 16 0.00 0.00
4:53 pm 16:53 Cloudy 64 17.8 42 5.6 45 45 ENE 3 6 30.11 1020 10 16 0.00 0.00
5:53 pm 17:53 Sunny 60 15.6 44 6.7 56 56 SSE 5 7 30.11 1020 10 16 0.00 0.00
6:53 pm 18:53 Clear 55 12.8 44 6.7 67 67 Calm 30.12 1020 10 16 0.00 0.00
7:53 pm 19:53 Clear 53 11.7 43 6.1 69 69 NNW 5 7 30.13 1020 10 16 0.00 0.00
8:53 pm 20:53 Clear 48 8.9 41 5 77 77 N 3 6 30.14 1021 10 16 0.00 0.00
9:53 pm 21:53 Clear 52 11.1 41 5 66 66 NW 7 11 30.14 1021 10 16 0.00 0.00
10:53 pm 22:53 Clear 47 8.3 41 5 80 80 N 5 7 30.15 1021 10 16 0.00 0.00
11:53 pm 23:53 Clear 47 8.3 41 5 80 80 NNE 3 6 30.14 1021 10 16 0.00 0.00

Powered by AerisWeather